FIN2WC LSZH-EFHK

Flight info

Callsign FIN2WC
Flight time N/A
Altitude 35000
Route DEGES Z1 ETAGO DCT TIKNI N746 KENIG DCT MAG DCT PODUS DCT BANUB DCT GOSOT DCT ALAMI DCT OKEVU DCT EVADI Y370 DIVAM
Aircraft A321/M-SDE3FGHIRWY/LB1

Departure

Time 2026-05-06 13:01
Airport Zürich Airport (LSZH)

Arrival

Time N/A
Airport Helsinki Vantaa Airport (EFHK)
Time Latitude Longitude Altitude Speed Heading
2026-05-06 12:17 47.45349 8.55700 1397 ft 0 kts
2026-05-06 12:49 47.45341 8.55699 1405 ft 2 kts
2026-05-06 12:49 47.45325 8.55696 1399 ft 2 kts
2026-05-06 12:50 47.45308 8.55694 1402 ft 2 kts
2026-05-06 12:50 47.45292 8.55691 1402 ft 2 kts 354°
2026-05-06 12:50 47.45276 8.55698 1405 ft 2 kts 315°
2026-05-06 12:50 47.45266 8.55718 1402 ft 2 kts 287°
2026-05-06 12:51 47.45263 8.55742 1400 ft 2 kts 277°
2026-05-06 12:51 47.45263 8.55748 1399 ft 0 kts 275°
2026-05-06 12:52 47.45265 8.55705 1397 ft 9 kts 275°
2026-05-06 12:53 47.45283 8.55586 1404 ft 12 kts 303°
2026-05-06 12:53 47.45338 8.55534 1402 ft 9 kts 334°
2026-05-06 12:53 47.45404 8.55487 1404 ft 12 kts 334°
2026-05-06 12:53 47.45482 8.55434 1397 ft 11 kts 336°
2026-05-06 12:54 47.45535 8.55399 1399 ft 6 kts 335°
2026-05-06 12:54 47.45582 8.55366 1398 ft 10 kts 335°
2026-05-06 12:54 47.45651 8.55343 1397 ft 9 kts 19°
2026-05-06 12:54 47.45671 8.55396 1397 ft 5 kts 88°
2026-05-06 12:55 47.45665 8.55485 1397 ft 14 kts 95°
2026-05-06 12:55 47.45653 8.55657 1397 ft 17 kts 96°
2026-05-06 12:55 47.45642 8.55805 1401 ft 12 kts 96°
2026-05-06 12:55 47.45633 8.55940 1405 ft 15 kts 96°
2026-05-06 12:56 47.45620 8.56115 1397 ft 18 kts 96°
2026-05-06 12:56 47.45607 8.56308 1397 ft 20 kts 95°
2026-05-06 12:56 47.45591 8.56522 1399 ft 22 kts 97°
2026-05-06 12:56 47.45577 8.56726 1404 ft 18 kts 96°
2026-05-06 12:57 47.45567 8.56880 1397 ft 13 kts 96°
2026-05-06 12:57 47.45573 8.56985 1400 ft 8 kts 59°
2026-05-06 12:57 47.45609 8.57018 1402 ft 8 kts 16°
2026-05-06 12:57 47.45666 8.57000 1404 ft 5 kts 301°
2026-05-06 12:58 47.45667 8.56962 1401 ft 7 kts 272°
2026-05-06 12:58 47.45668 8.56919 1399 ft 0 kts 275°
2026-05-06 13:00 47.45669 8.56911 1399 ft 5 kts 275°
2026-05-06 13:00 47.45692 8.56535 1399 ft 71 kts 275°
2026-05-06 13:00 47.45767 8.55512 1399 ft 127 kts 276°
2026-05-06 13:00 47.45874 8.54016 1599 ft 153 kts 275°
2026-05-06 13:01 47.45992 8.52473 2321 ft 150 kts 274°
2026-05-06 13:01 47.46097 8.50931 2877 ft 156 kts 273°
2026-05-06 13:01 47.46220 8.49223 3049 ft 176 kts 274°
2026-05-06 13:01 47.46079 8.47370 3167 ft 193 kts 245°
2026-05-06 13:02 47.45153 8.45875 3434 ft 204 kts 220°
2026-05-06 13:02 47.44090 8.44455 3957 ft 206 kts 236°
2026-05-06 13:02 47.43509 8.42550 4714 ft 204 kts 255°
2026-05-06 13:02 47.43137 8.40547 5366 ft 206 kts 255°
2026-05-06 13:03 47.42719 8.38483 6042 ft 208 kts 245°
2026-05-06 13:03 47.41769 8.36919 6606 ft 214 kts 211°
2026-05-06 13:03 47.40310 8.36438 7183 ft 224 kts 178°
2026-05-06 13:03 47.38851 8.37367 7677 ft 242 kts 140°
2026-05-06 13:04 47.38029 8.39569 8283 ft 256 kts 101°
2026-05-06 13:04 47.38244 8.42178 8829 ft 263 kts 62°
2026-05-06 13:04 47.39357 8.44305 9387 ft 263 kts 38°
2026-05-06 13:04 47.40792 8.46008 9881 ft 269 kts 35°
2026-05-06 13:05 47.42223 8.47914 10132 ft 288 kts 41°
2026-05-06 13:05 47.43685 8.50116 10262 ft 311 kts 47°
2026-05-06 13:05 47.45033 8.52758 10382 ft 334 kts 62°
2026-05-06 13:05 47.45788 8.56078 10521 ft 351 kts 83°
2026-05-06 13:06 47.45897 8.59724 10884 ft 359 kts 91°
2026-05-06 13:06 47.45958 8.63429 11440 ft 363 kts 89°
2026-05-06 13:06 47.46080 8.67181 12061 ft 365 kts 88°
2026-05-06 13:06 47.46235 8.70918 12728 ft 365 kts 88°
2026-05-06 13:07 47.46400 8.74674 13405 ft 365 kts 89°
2026-05-06 13:07 47.46561 8.78418 14035 ft 365 kts 89°
2026-05-06 13:07 47.46607 8.82175 14560 ft 365 kts 97°
2026-05-06 13:07 47.46216 8.85822 15075 ft 365 kts 106°
2026-05-06 13:08 47.45669 8.89499 15618 ft 368 kts 106°
2026-05-06 13:08 47.45124 8.93208 16127 ft 371 kts 105°
2026-05-06 13:08 47.44584 8.96950 16596 ft 374 kts 105°
2026-05-06 13:08 47.44047 9.00725 17072 ft 377 kts 105°
2026-05-06 13:09 47.43509 9.04528 17506 ft 380 kts 105°
2026-05-06 13:09 47.42964 9.08354 17928 ft 383 kts 106°
2026-05-06 13:09 47.42407 9.12222 18332 ft 386 kts 106°
2026-05-06 13:09 47.41844 9.16111 18734 ft 389 kts 106°
2026-05-06 13:10 47.41278 9.20031 19108 ft 392 kts 105°
2026-05-06 13:10 47.41124 9.24086 19444 ft 403 kts 86°
2026-05-06 13:10 47.41947 9.28074 19777 ft 414 kts 64°
2026-05-06 13:10 47.43726 9.31437 20117 ft 421 kts 43°
2026-05-06 13:11 47.45922 9.34308 20461 ft 422 kts 46°
2026-05-06 13:11 47.47844 9.37578 20818 ft 422 kts 57°
2026-05-06 13:11 47.49448 9.41217 21167 ft 423 kts 56°
2026-05-06 13:11 47.51565 9.44248 21493 ft 429 kts 32°
2026-05-06 13:12 47.54307 9.45941 21822 ft 430 kts 12°
2026-05-06 13:12 47.57240 9.46450 22149 ft 429 kts 354°
2026-05-06 13:12 47.60157 9.45632 22470 ft 428 kts 343°
2026-05-06 13:12 47.63084 9.44710 22826 ft 432 kts 351°
2026-05-06 13:13 47.66091 9.44489 23197 ft 435 kts
2026-05-06 13:13 47.69120 9.44782 23536 ft 438 kts
2026-05-06 13:13 47.72157 9.45302 23827 ft 440 kts
2026-05-06 13:13 47.75203 9.45834 24112 ft 442 kts
2026-05-06 13:14 47.78277 9.46257 24393 ft 445 kts
2026-05-06 13:14 47.81373 9.46525 24683 ft 447 kts
2026-05-06 13:14 47.84487 9.46595 24970 ft 449 kts 358°
2026-05-06 13:14 47.87622 9.46528 25252 ft 451 kts 356°
2026-05-06 13:15 47.90763 9.46400 25529 ft 453 kts 356°
2026-05-06 13:15 47.93924 9.46281 25803 ft 456 kts 356°
2026-05-06 13:15 47.97108 9.46203 26087 ft 459 kts 357°
2026-05-06 13:15 48.00310 9.46173 26335 ft 461 kts 357°
2026-05-06 13:16 48.03536 9.46174 26593 ft 464 kts 357°
2026-05-06 13:16 48.06768 9.46189 26858 ft 467 kts 357°
2026-05-06 13:16 48.10028 9.46200 27100 ft 469 kts 357°
2026-05-06 13:16 48.13302 9.46203 27353 ft 472 kts 357°
2026-05-06 13:17 48.16594 9.46201 27599 ft 474 kts 357°
2026-05-06 13:17 48.19864 9.46199 27848 ft 477 kts 357°
2026-05-06 13:17 48.23188 9.46198 28088 ft 479 kts 357°
2026-05-06 13:17 48.26528 9.46197 28355 ft 481 kts 357°
2026-05-06 13:18 48.29886 9.46195 28634 ft 483 kts 357°
2026-05-06 13:18 48.33259 9.46197 28948 ft 486 kts 357°
2026-05-06 13:18 48.36647 9.46203 29223 ft 488 kts 356°
2026-05-06 13:18 48.40055 9.46209 29524 ft 490 kts 357°
2026-05-06 13:19 48.43475 9.46215 29760 ft 492 kts 357°
2026-05-06 13:19 48.46913 9.46219 29979 ft 494 kts 357°
2026-05-06 13:19 48.50355 9.46220 30161 ft 495 kts 356°
2026-05-06 13:19 48.53801 9.46219 30370 ft 495 kts 356°
2026-05-06 13:20 48.57240 9.46206 30620 ft 494 kts 356°
2026-05-06 13:20 48.60680 9.46176 30882 ft 493 kts 356°
2026-05-06 13:20 48.64110 9.46133 31127 ft 493 kts 356°
2026-05-06 13:20 48.67530 9.46084 31372 ft 492 kts 356°
2026-05-06 13:21 48.70958 9.46036 31596 ft 492 kts 356°
2026-05-06 13:21 48.74383 9.46377 31825 ft 495 kts
2026-05-06 13:21 48.77792 9.47181 32058 ft 495 kts
2026-05-06 13:21 48.81187 9.47998 32269 ft 495 kts
2026-05-06 13:22 48.84592 9.48816 32507 ft 494 kts
2026-05-06 13:22 48.87992 9.49630 32746 ft 494 kts
2026-05-06 13:22 48.91378 9.50440 32968 ft 494 kts
2026-05-06 13:22 48.94773 9.51252 33192 ft 493 kts
2026-05-06 13:23 48.98170 9.52065 33426 ft 493 kts
2026-05-06 13:23 49.01553 9.52876 33640 ft 492 kts
2026-05-06 13:23 49.04937 9.53688 33840 ft 492 kts
2026-05-06 13:23 49.08325 9.54502 34017 ft 492 kts
2026-05-06 13:24 49.11700 9.55313 34210 ft 492 kts
2026-05-06 13:24 49.15077 9.56128 34399 ft 491 kts
2026-05-06 13:24 49.18403 9.56936 34578 ft 490 kts
2026-05-06 13:24 49.21766 9.57754 34739 ft 490 kts
2026-05-06 13:25 49.25120 9.58573 34789 ft 486 kts
2026-05-06 13:25 49.31782 9.60190 34794 ft 483 kts
2026-05-06 13:26 49.38409 9.61793 34805 ft 481 kts
2026-05-06 13:26 49.45015 9.63401 34804 ft 480 kts
2026-05-06 13:27 49.51612 9.65019 34802 ft 480 kts
2026-05-06 13:27 49.58200 9.66632 34807 ft 479 kts
2026-05-06 13:28 49.63675 9.67981 34806 ft 479 kts
2026-05-06 13:28 49.70262 9.69603 34804 ft 478 kts
2026-05-06 13:29 49.76827 9.71219 34799 ft 478 kts
2026-05-06 13:29 49.83387 9.72845 34792 ft 478 kts
2026-05-06 13:30 49.89950 9.74481 34792 ft 477 kts
2026-05-06 13:30 49.96502 9.76114 34785 ft 477 kts
2026-05-06 13:31 50.03046 9.77749 34779 ft 476 kts
2026-05-06 13:31 50.09549 9.79387 34773 ft 476 kts
2026-05-06 13:32 50.16086 9.81030 34769 ft 476 kts
2026-05-06 13:32 50.22619 9.82673 34763 ft 476 kts
2026-05-06 13:33 50.29158 9.84327 34755 ft 476 kts
2026-05-06 13:33 50.35694 9.85996 34754 ft 476 kts
2026-05-06 13:34 50.42010 9.89130 34744 ft 479 kts 26°
2026-05-06 13:34 50.47574 9.94849 34738 ft 479 kts 36°
2026-05-06 13:35 50.53002 10.00936 34736 ft 480 kts 33°
2026-05-06 13:35 50.58657 10.06529 34735 ft 480 kts 30°
2026-05-06 13:36 50.64399 10.11928 34735 ft 480 kts 30°
2026-05-06 13:36 50.70066 10.17396 34746 ft 481 kts 31°
2026-05-06 13:37 50.75731 10.23030 34747 ft 481 kts 32°
2026-05-06 13:37 50.81386 10.28683 34752 ft 481 kts 32°
2026-05-06 13:38 50.87048 10.34334 34756 ft 481 kts 31°
2026-05-06 13:38 50.92715 10.39986 34755 ft 481 kts 31°
2026-05-06 13:39 50.98374 10.45645 34768 ft 481 kts 31°
2026-05-06 13:39 51.04022 10.51319 34773 ft 481 kts 31°
2026-05-06 13:40 51.09671 10.57003 34780 ft 481 kts 31°
2026-05-06 13:40 51.15322 10.62698 34782 ft 481 kts 31°
2026-05-06 13:41 51.20967 10.68424 34784 ft 480 kts 32°
2026-05-06 13:41 51.26600 10.74155 34783 ft 480 kts 32°
2026-05-06 13:42 51.32225 10.79884 34779 ft 480 kts 32°
2026-05-06 13:42 51.37809 10.85596 34780 ft 480 kts 32°
2026-05-06 13:43 51.43430 10.91359 34781 ft 479 kts 32°
2026-05-06 13:43 51.49049 10.97128 34784 ft 480 kts 32°
2026-05-06 13:44 51.54667 11.02921 34778 ft 480 kts 32°
2026-05-06 13:44 51.60288 11.08730 34787 ft 480 kts 32°
2026-05-06 13:45 51.65904 11.14551 34794 ft 480 kts 32°
2026-05-06 13:45 51.74341 11.23339 34812 ft 481 kts 32°
2026-05-06 13:46 51.79954 11.29203 34818 ft 481 kts 32°
2026-05-06 13:46 51.85563 11.35083 34820 ft 480 kts 32°
2026-05-06 13:47 51.91162 11.40967 34821 ft 480 kts 32°
2026-05-06 13:47 51.96725 11.46840 34817 ft 480 kts 32°
2026-05-06 13:48 52.02307 11.52744 34811 ft 479 kts 32°
2026-05-06 13:48 52.07895 11.58675 34811 ft 479 kts 32°
2026-05-06 13:49 52.13473 11.64609 34813 ft 479 kts 32°
2026-05-06 13:49 52.19047 11.70557 34815 ft 479 kts 32°
2026-05-06 13:50 52.24615 11.76517 34819 ft 479 kts 32°
2026-05-06 13:50 52.30183 11.82492 34819 ft 478 kts 32°
2026-05-06 13:51 52.35743 11.88478 34825 ft 478 kts 32°
2026-05-06 13:51 52.41296 11.94486 34828 ft 478 kts 32°
2026-05-06 13:52 52.46844 12.00496 34829 ft 478 kts 32°
2026-05-06 13:52 52.52355 12.06488 34832 ft 478 kts 33°
2026-05-06 13:53 52.57889 12.12537 34834 ft 478 kts 33°
2026-05-06 13:53 52.63423 12.18587 34837 ft 478 kts 32°
2026-05-06 13:54 52.68957 12.24644 34837 ft 477 kts 33°
2026-05-06 13:54 52.74476 12.30714 34840 ft 477 kts 33°
2026-05-06 13:55 52.79993 12.36807 34842 ft 477 kts 33°
2026-05-06 13:55 52.85508 12.42919 34839 ft 477 kts 33°
2026-05-06 13:56 52.91008 12.49026 34842 ft 476 kts 33°
2026-05-06 13:56 52.96504 12.55151 34848 ft 476 kts 33°
2026-05-06 13:57 53.01995 12.61290 34848 ft 475 kts 33°
2026-05-06 13:57 53.07472 12.67445 34847 ft 475 kts 33°
2026-05-06 13:58 53.12950 12.73605 34848 ft 475 kts 33°
2026-05-06 13:58 53.18386 12.79726 34851 ft 474 kts 33°
2026-05-06 13:59 53.23846 12.85905 34855 ft 474 kts 33°
2026-05-06 13:59 53.29292 12.92091 34855 ft 473 kts 33°
2026-05-06 14:00 53.34740 12.98288 34856 ft 473 kts 33°
2026-05-06 14:00 53.40168 13.04495 34858 ft 472 kts 34°
2026-05-06 14:01 53.45589 13.10721 34855 ft 472 kts 34°
2026-05-06 14:01 53.51002 13.16944 34860 ft 471 kts 34°
2026-05-06 14:02 53.56415 13.23190 34858 ft 471 kts 34°
2026-05-06 14:02 53.61775 13.29392 34861 ft 471 kts 34°
2026-05-06 14:03 53.67172 13.35632 34867 ft 470 kts 34°
2026-05-06 14:03 53.72558 13.41907 34861 ft 470 kts 34°
2026-05-06 14:04 53.77932 13.48197 34866 ft 470 kts 34°
2026-05-06 14:04 53.83306 13.54502 34869 ft 470 kts 34°
2026-05-06 14:05 53.88672 13.60804 34879 ft 469 kts 34°
2026-05-06 14:05 53.94033 13.67123 34880 ft 469 kts 34°
2026-05-06 14:06 53.99384 13.73445 34884 ft 468 kts 34°
2026-05-06 14:06 54.04725 13.79785 34882 ft 468 kts 34°
2026-05-06 14:07 54.10054 13.86132 34883 ft 467 kts 34°
2026-05-06 14:07 54.15377 13.92495 34893 ft 467 kts 34°
2026-05-06 14:08 54.20696 13.98866 34894 ft 467 kts 34°
2026-05-06 14:08 54.25976 14.05215 34897 ft 467 kts 34°
2026-05-06 14:09 54.31278 14.11621 34900 ft 466 kts 34°
2026-05-06 14:09 54.36585 14.18029 34910 ft 466 kts 34°
2026-05-06 14:10 54.41881 14.24459 34910 ft 467 kts 35°
2026-05-06 14:10 54.47070 14.31119 34911 ft 465 kts 43°
2026-05-06 14:11 54.51780 14.38752 34911 ft 465 kts 43°
2026-05-06 14:11 54.56489 14.46381 34919 ft 464 kts 43°
2026-05-06 14:12 54.61197 14.54006 34922 ft 464 kts 43°
2026-05-06 14:12 54.65890 14.61651 34917 ft 463 kts 44°
2026-05-06 14:13 54.70565 14.69318 34924 ft 463 kts 44°
2026-05-06 14:13 54.75209 14.76951 34922 ft 463 kts 44°
2026-05-06 14:14 54.79874 14.84623 34935 ft 463 kts 41°
2026-05-06 14:14 54.85024 14.91313 34940 ft 463 kts 35°
2026-05-06 14:15 54.90267 14.97793 34946 ft 463 kts 35°
2026-05-06 14:15 54.95502 15.04300 34944 ft 463 kts 35°
2026-05-06 14:16 55.00744 15.10841 34944 ft 463 kts 35°
2026-05-06 14:16 55.05979 15.17382 34946 ft 462 kts 35°
2026-05-06 14:17 55.11202 15.23932 34946 ft 462 kts 35°
2026-05-06 14:17 55.16419 15.30504 34941 ft 462 kts 36°
2026-05-06 14:18 55.21629 15.37099 34943 ft 462 kts 36°
2026-05-06 14:18 55.26806 15.43671 34943 ft 462 kts 36°
2026-05-06 14:19 55.32012 15.50298 34941 ft 462 kts 36°
2026-05-06 14:19 55.37216 15.56939 34942 ft 463 kts 36°
2026-05-06 14:20 55.42426 15.63604 34941 ft 463 kts 36°
2026-05-06 14:20 55.47633 15.70301 34942 ft 463 kts 36°
2026-05-06 14:21 55.51956 15.75878 34949 ft 463 kts 36°
2026-05-06 14:21 55.57156 15.82604 34946 ft 463 kts 36°
2026-05-06 14:22 55.62358 15.89364 34946 ft 463 kts 36°
2026-05-06 14:22 55.67550 15.96123 34948 ft 463 kts 36°
2026-05-06 14:23 55.72744 16.02899 34944 ft 464 kts 37°
2026-05-06 14:23 55.77938 16.09695 34947 ft 464 kts 37°
2026-05-06 14:24 55.83134 16.16530 34951 ft 464 kts 37°
2026-05-06 14:24 55.88293 16.23344 34950 ft 465 kts 37°
2026-05-06 14:25 55.93482 16.30218 34949 ft 465 kts 37°
2026-05-06 14:25 55.98667 16.37105 34945 ft 465 kts 37°
2026-05-06 14:26 56.03854 16.44018 34943 ft 465 kts 37°
2026-05-06 14:26 56.09041 16.50960 34940 ft 465 kts 37°
2026-05-06 14:27 56.14224 16.57926 34941 ft 466 kts 37°
2026-05-06 14:27 56.19411 16.64906 34943 ft 466 kts 37°
2026-05-06 14:28 56.24604 16.71911 34943 ft 467 kts 38°
2026-05-06 14:28 56.29806 16.78953 34944 ft 468 kts 38°
2026-05-06 14:29 56.34983 16.85995 34949 ft 469 kts 38°
2026-05-06 14:29 56.40173 16.93107 34950 ft 469 kts 38°
2026-05-06 14:30 56.45368 17.00238 34950 ft 469 kts 38°
2026-05-06 14:30 56.50562 17.07392 34951 ft 469 kts 38°
2026-05-06 14:31 56.55756 17.14549 34943 ft 469 kts 38°
2026-05-06 14:31 56.60945 17.21743 34943 ft 470 kts 38°
2026-05-06 14:32 56.66133 17.28960 34947 ft 470 kts 38°
2026-05-06 14:32 56.71323 17.36198 34949 ft 471 kts 38°
2026-05-06 14:33 56.76526 17.43475 34947 ft 472 kts 39°
2026-05-06 14:33 56.81733 17.50790 34948 ft 472 kts 39°
2026-05-06 14:34 56.86907 17.58086 34952 ft 473 kts 39°
2026-05-06 14:34 56.92113 17.65461 34946 ft 474 kts 39°
2026-05-06 14:35 56.97328 17.72873 34952 ft 475 kts 39°
2026-05-06 14:35 57.02550 17.80308 34954 ft 475 kts 39°
2026-05-06 14:36 57.07776 17.87778 34959 ft 476 kts 39°
2026-05-06 14:36 57.13004 17.95278 34963 ft 477 kts 39°
2026-05-06 14:37 57.18234 18.02824 34956 ft 478 kts 39°
2026-05-06 14:37 57.23466 18.10396 34956 ft 478 kts 39°
2026-05-06 14:38 57.28703 18.18007 34970 ft 479 kts 39°
2026-05-06 14:38 57.33943 18.25650 34966 ft 480 kts 39°
2026-05-06 14:39 57.39190 18.33320 34971 ft 481 kts 39°
2026-05-06 14:39 57.44442 18.41029 34978 ft 482 kts 39°
2026-05-06 14:40 57.49696 18.48774 34977 ft 483 kts 39°
2026-05-06 14:40 57.54919 18.56511 34983 ft 484 kts 39°
2026-05-06 14:41 57.60183 18.64340 34983 ft 485 kts 39°
2026-05-06 14:41 57.65461 18.72202 34989 ft 486 kts 39°
2026-05-06 14:42 57.70738 18.80092 34987 ft 486 kts 39°
2026-05-06 14:42 57.76021 18.88024 34987 ft 487 kts 39°
2026-05-06 14:43 57.81308 18.96013 34991 ft 488 kts 39°
2026-05-06 14:43 57.86605 19.04035 34994 ft 489 kts 39°
2026-05-06 14:44 57.91899 19.12088 34999 ft 490 kts 39°
2026-05-06 14:45 57.99862 19.24245 35006 ft 492 kts 39°
2026-05-06 14:45 58.05135 19.32345 35008 ft 492 kts 39°
2026-05-06 14:46 58.10447 19.40534 35009 ft 493 kts 39°
2026-05-06 14:46 58.15763 19.48753 35012 ft 494 kts 39°
2026-05-06 14:47 58.21074 19.56997 35013 ft 494 kts 39°
2026-05-06 14:47 58.26393 19.65291 35012 ft 495 kts 39°
2026-05-06 14:48 58.31702 19.73614 35014 ft 495 kts 39°
2026-05-06 14:48 58.37014 19.81982 35016 ft 496 kts 39°
2026-05-06 14:49 58.42325 19.90366 35011 ft 496 kts 39°
2026-05-06 14:49 58.47646 19.98782 35009 ft 497 kts 39°
2026-05-06 14:50 58.52929 20.07194 35010 ft 497 kts 39°
2026-05-06 14:50 58.58249 20.15708 35012 ft 498 kts 39°
2026-05-06 14:51 58.63571 20.24234 35013 ft 499 kts 39°
2026-05-06 14:51 58.68900 20.32799 35014 ft 499 kts 39°
2026-05-06 14:52 58.74215 20.41409 35016 ft 500 kts 39°
2026-05-06 14:52 58.79536 20.50055 35014 ft 501 kts 39°
2026-05-06 14:53 58.84863 20.58742 35019 ft 501 kts 39°
2026-05-06 14:53 58.90196 20.67460 35018 ft 502 kts 39°
2026-05-06 14:54 58.95476 20.76164 35025 ft 502 kts 39°
2026-05-06 14:54 59.00791 20.84968 35022 ft 503 kts 39°
2026-05-06 14:55 59.05665 20.94687 35021 ft 504 kts 54°
2026-05-06 14:55 59.09406 21.06204 35014 ft 504 kts 59°
2026-05-06 14:56 59.13064 21.17861 35016 ft 505 kts 59°
2026-05-06 14:56 59.16717 21.29562 35017 ft 506 kts 60°
2026-05-06 14:57 59.20362 21.41325 35017 ft 507 kts 60°